Location: Dunedin
(45.8670°S, 170.5000°E)
Time: 01:45:19
(UTC+13:00)

Cosmos 2315 Rocket - Pass Details

Date: 24 January 2019
Orbit: 965 x 1003 km, 82.9° (Epoch: 13 October)

Event Time Altitude Azimuth Distance (km) Brightness Sun altitude
Rises 21:55:00 0° 188° (S) 3,754 7.8 -6.0°
Reaches altitude 10° 21:57:34 10° 185° (S) 2,793 7.0 -6.4°
Maximum altitude 22:04:00 74° 100° (E) 1,038 4.1 -7.3°
Drops below altitude 10° 22:10:17 10° 14° (NNE) 2,735 5.9 -8.1°
Enters shadow 22:12:21 - 12° (NNE) 3,508 6.4 -8.4°
